sat.trackr.live / text

‹ back to catalog

THAICOM 4

NORAD 28786 · 2005-028A

PAYLOAD ACTIVE UNKNOWN

§ Identity

Operator
Country
THAI
Launch date
2005-08-11
Launch site
FRGUI
Launch vehicle
Mass (kg)
RCS (m²)
15.87

Purposes: comms

External: N2YO · Heavens-Above · Gunter

§ Orbital elements

Epoch: 2026-09-19T20:42:54.707616Z

Period
1,436.10 min
Inclination
0.4829°
Eccentricity
0.0000484
Mean motion
1.00271710 rev/d
Perigee alt
35,784.6 km
Apogee alt
35,788.7 km
Semi-major
42,164.8 km
B*
0.0000e+0
RAAN
84.5087°
Arg perigee
43.7738°
Mean anomaly
300.7044°
Rev number
5,319

§ Raw data

THAICOM 41 28786U 05028A   26262.86313319 -.00000366  00000+0  00000+0 0  99922 28786   0.4829  84.5087 0000484  43.7738 300.7044  1.00271710 53191

JSON: /api/v1/satellites/28786 · /tle

For live sub-satellite position, see the globe view (requires WebGL).

§ Visibility from observer

Set your observer location to see the next 7 days of passes ≥ 10°. The values pass through the URL so the page stays shareable.

No JS? Fill the form by hand. The geolocation button needs JavaScript.